,,,PA_Meas_PMT16A,,PR_Meas_QMR101_102,,RH_Meas_QMH101,,SR_Meas_QMS101,,TA_Meas_QMH101,,GenWind,,GenWind,
date,time,status,PA,status,PR,status,RH,status,SR,status,TA,status,DirAvg,status,SpdAvg,
2011-11-03, 00:00:04,VALID,996.523,VALID,0,VALID,92.9669,VALID,0,VALID,23.4085,VALID,28,VALID,0.667969,
2011-11-03, 00:01:04,VALID,996.494,VALID,0,VALID,93.0661,VALID,0,VALID,23.4085,VALID,28,VALID,0.721875,
2011-11-03, 00:02:04,VALID,996.491,VALID,0,VALID,93.1577,VALID,0,VALID,23.428,VALID,28,VALID,0.694141,
2011-11-03, 00:03:04,VALID,996.469,VALID,0,VALID,93.234,VALID,0,VALID,23.4671,VALID,28,VALID,0.713672,
2011-11-03, 00:04:04,VALID,996.437,VALID,0,VALID,93.2645,VALID,0,VALID,23.4866,VALID,28,VALID,0.629687,
2011-11-03, 00:05:04,VALID,996.441,VALID,0,VALID,93.2874,VALID,0,VALID,23.5061,VALID,28,VALID,0.522266,
2011-11-03, 00:06:04,VALID,996.441,VALID,0,VALID,93.3255,VALID,0,VALID,23.5256,VALID,28,VALID,0.441797,
2011-11-03, 00:07:04,VALID,996.436,VALID,0,VALID,93.3331,VALID,0,VALID,23.5256,VALID,28,VALID,0.319531,
2011-11-03, 00:08:04,VALID,996.421,VALID,0,VALID,93.3103,VALID,0,VALID,23.5256,VALID,28,VALID,0.317578,
2011-11-03, 00:09:04,VALID,996.41,VALID,0,VALID,93.3179,VALID,0,VALID,23.5061,VALID,28,VALID,0.283984,
2011-11-03, 00:10:04,VALID,996.379,VALID,0,VALID,93.3103,VALID,0,VALID,23.4848,VALID,28,VALID,0.404687,
2011-11-03, 00:11:04,VALID,996.395,VALID,0,VALID,93.2797,VALID,0,VALID,23.4866,VALID,28,VALID,0.470313,
2011-11-03, 00:12:04,VALID,996.375,VALID,0,VALID,93.3026,VALID,0,VALID,23.4866,VALID,28,VALID,0.55,
2011-11-03, 00:13:04,VALID,996.338,VALID,0,VALID,93.3103,VALID,0,VALID,23.4866,VALID,28,VALID,0.653516,
2011-11-03, 00:14:04,VALID,996.356,VALID,0,VALID,93.3179,VALID,0,VALID,23.4866,VALID,28,VALID,0.64375,
2011-11-03, 00:15:04,VALID,996.36,VALID,0,VALID,93.3026,VALID,0,VALID,23.4866,VALID,28,VALID,0.760938,
2011-11-03, 00:16:04,VALID,996.377,VALID,0,VALID,93.3026,VALID,0,VALID,23.4866,VALID,34,VALID,0.720312,
2011-11-03, 00:17:04,VALID,996.37,VALID,0,VALID,93.2721,VALID,0,VALID,23.4671,VALID,38,VALID,0.376953,
2011-11-03, 00:18:04,VALID,996.375,VALID,0,VALID,93.2263,VALID,0,VALID,23.428,VALID,38,VALID,0,
2011-11-03, 00:19:04,VALID,996.384,VALID,0,VALID,93.1882,VALID,0,VALID,23.389,VALID,38,VALID,0,
2011-11-03, 00:20:04,VALID,996.38,VALID,0,VALID,93.1882,VALID,0,VALID,23.3482,VALID,38,VALID,0,
2011-11-03, 00:21:04,VALID,996.407,VALID,0,VALID,93.2034,VALID,0,VALID,23.35,VALID,38,VALID,0,
2011-11-03, 00:22:04,VALID,996.428,VALID,0,VALID,93.234,VALID,0,VALID,23.3695,VALID,38,VALID,0.337891,
2011-11-03, 00:23:04,VALID,996.414,VALID,0,VALID,93.3331,VALID,0,VALID,23.389,VALID,38,VALID,0.387109,
2011-11-03, 00:24:04,VALID,996.417,VALID,0,VALID,93.4171,VALID,0,VALID,23.4475,VALID,38,VALID,0.575781,
2011-11-03, 00:25:04,VALID,996.403,VALID,0,VALID,93.4476,VALID,0,VALID,23.4671,VALID,90,VALID,0.601953,
2011-11-03, 00:26:04,VALID,996.398,VALID,0,VALID,93.5086,VALID,0,VALID,23.4671,VALID,101,VALID,0.473047,
2011-11-03, 00:27:04,VALID,996.385,VALID,0,VALID,93.5239,VALID,0,VALID,23.5061,VALID,101,VALID,0.455078,
2011-11-03, 00:28:04,VALID,996.377,VALID,0,VALID,93.5086,VALID,0,VALID,23.5256,VALID,137,VALID,0.920313,
2011-11-03, 00:29:04,VALID,996.359,VALID,0,VALID,93.5163,VALID,0,VALID,23.5451,VALID,137,VALID,0.717188,
2011-11-03, 00:30:04,VALID,996.332,VALID,0,VALID,93.4857,VALID,0,VALID,23.5646,VALID,137,VALID,0.558594,
2011-11-03, 00:31:04,VALID,996.354,VALID,0,VALID,93.4018,VALID,0,VALID,23.6036,VALID,137,VALID,0.445313,
2011-11-03, 00:32:04,VALID,996.345,VALID,0,VALID,93.295,VALID,0,VALID,23.6232,VALID,137,VALID,0.577734,
2011-11-03, 00:33:04,VALID,996.348,VALID,0,VALID,93.1805,VALID,0,VALID,23.6622,VALID,137,VALID,0.757031,
2011-11-03, 00:34:04,VALID,996.314,VALID,0,VALID,93.0127,VALID,0,VALID,23.6817,VALID,137,VALID,0.692187,
2011-11-03, 00:35:04,VALID,996.313,VALID,0,VALID,92.8448,VALID,0,VALID,23.7207,VALID,137,VALID,0.541016,
2011-11-03, 00:36:04,VALID,996.346,VALID,0,VALID,92.6388,VALID,0,VALID,23.7207,VALID,137,VALID,0.517578,
2011-11-03, 00:37:04,VALID,996.332,VALID,0,VALID,92.4786,VALID,0,VALID,23.7402,VALID,137,VALID,0.463672,
2011-11-03, 00:38:04,VALID,996.316,VALID,0,VALID,92.3337,VALID,0,VALID,23.7402,VALID,136,VALID,0.532031,
2011-11-03, 00:39:04,VALID,996.307,VALID,0,VALID,92.1658,VALID,0,VALID,23.7384,VALID,80,VALID,0.733984,
2011-11-03, 00:40:04,VALID,996.33,VALID,0,VALID,91.9293,VALID,0,VALID,23.7402,VALID,71,VALID,0.632031,
2011-11-03, 00:41:04,VALID,996.302,VALID,0,VALID,91.8072,VALID,0,VALID,23.7207,VALID,71,VALID,0.661719,
2011-11-03, 00:42:04,VALID,996.278,VALID,0,VALID,91.853,VALID,0,VALID,23.7012,VALID,71,VALID,0.607813,
2011-11-03, 00:43:04,VALID,996.289,VALID,0,VALID,91.9369,VALID,0,VALID,23.6622,VALID,71,VALID,0.528906,
2011-11-03, 00:44:04,VALID,996.279,VALID,0,VALID,91.9827,VALID,0,VALID,23.6427,VALID,71,VALID,0.515625,
2011-11-03, 00:45:04,VALID,996.241,VALID,0,VALID,92.0895,VALID,0,VALID,23.6232,VALID,71,VALID,0.646484,
2011-11-03, 00:46:04,VALID,996.202,VALID,0,VALID,92.1353,VALID,0,VALID,23.5841,VALID,50,VALID,0.762109,
2011-11-03, 00:47:04,VALID,996.173,VALID,0,VALID,92.0666,VALID,0,VALID,23.5274,VALID,50,VALID,0.641016,
2011-11-03, 00:48:04,VALID,996.174,VALID,0,VALID,92.0437,VALID,0,VALID,23.4475,VALID,50,VALID,0.653125,
2011-11-03, 00:49:04,VALID,996.145,VALID,0,VALID,92.1658,VALID,0,VALID,23.4085,VALID,50,VALID,0.79375,
2011-11-03, 00:50:04,VALID,996.169,VALID,0,VALID,92.3108,VALID,0,VALID,23.3695,VALID,50,VALID,0.824609,
2011-11-03, 00:51:04,VALID,996.15,VALID,0,VALID,92.5015,VALID,0,VALID,23.3518,VALID,44,VALID,0.79375,
2011-11-03, 00:52:04,VALID,996.187,VALID,0,VALID,92.6312,VALID,0,VALID,23.3323,VALID,44,VALID,0.604297,
2011-11-03, 00:53:04,VALID,996.169,VALID,0,VALID,92.7533,VALID,0,VALID,23.2915,VALID,44,VALID,0.594531,
2011-11-03, 00:54:04,VALID,996.16,VALID,0,VALID,92.8754,VALID,0,VALID,23.2719,VALID,44,VALID,0.576953,
2011-11-03, 00:55:04,VALID,996.178,VALID,0,VALID,92.9822,VALID,0,VALID,23.2932,VALID,61,VALID,0.735156,
2011-11-03, 00:56:04,VALID,996.146,VALID,0,VALID,93.1195,VALID,0,VALID,23.311,VALID,61,VALID,0.75,
2011-11-03, 00:57:04,VALID,996.157,VALID,0,VALID,93.234,VALID,0,VALID,23.3305,VALID,64,VALID,0.785156,
2011-11-03, 00:58:04,VALID,996.141,VALID,0,VALID,93.295,VALID,0,VALID,23.3305,VALID,74,VALID,0.814844,
2011-11-03, 00:59:04,VALID,996.155,VALID,0,VALID,93.3255,VALID,0,VALID,23.3305,VALID,78,VALID,0.751172,
2011-11-03, 01:00:04,VALID,996.166,VALID,0,VALID,93.3255,VALID,0,VALID,23.311,VALID,78,VALID,0.714453,
2011-11-03, 01:01:04,VALID,996.129,VALID,0,VALID,93.2874,VALID,0,VALID,23.2719,VALID,78,VALID,0.570703,
2011-11-03, 01:02:04,VALID,996.146,VALID,0,VALID,93.2797,VALID,0,VALID,23.2524,VALID,78,VALID,0.526172,
2011-11-03, 01:03:04,VALID,996.095,VALID,0,VALID,93.2874,VALID,0,VALID,23.2524,VALID,78,VALID,0.532031,
2011-11-03, 01:04:04,VALID,996.091,VALID,0,VALID,93.3255,VALID,0,VALID,23.2524,VALID,78,VALID,0.445703,
2011-11-03, 01:05:04,VALID,996.064,VALID,0,VALID,93.3179,VALID,0,VALID,23.2329,VALID,78,VALID,0.432422,
2011-11-03, 01:06:04,VALID,996.057,VALID,0,VALID,93.3637,VALID,0,VALID,23.2524,VALID,81,VALID,0.755469,
2011-11-03, 01:07:04,VALID,996.064,VALID,0,VALID,93.3713,VALID,0,VALID,23.2524,VALID,94,VALID,1.00859,
2011-11-03, 01:08:04,VALID,996.04,VALID,0,VALID,93.3484,VALID,0,VALID,23.2915,VALID,103,VALID,1.07734,
2011-11-03, 01:09:04,VALID,996.056,VALID,0,VALID,93.3408,VALID,0,VALID,23.3305,VALID,108,VALID,0.867969,
2011-11-03, 01:10:04,VALID,996.045,VALID,0,VALID,93.2797,VALID,0,VALID,23.3908,VALID,111,VALID,0.599219,
2011-11-03, 01:11:04,VALID,996.082,VALID,0,VALID,93.2263,VALID,0,VALID,23.389,VALID,111,VALID,0.438672,
2011-11-03, 01:12:04,VALID,996.085,VALID,0,VALID,93.1805,VALID,0,VALID,23.389,VALID,117,VALID,0.545313,
2011-11-03, 01:13:04,VALID,996.079,VALID,0,VALID,93.1348,VALID,0,VALID,23.4085,VALID,119,VALID,0.407031,
2011-11-03, 01:14:04,VALID,996.105,VALID,0,VALID,93.0737,VALID,0,VALID,23.4085,VALID,119,VALID,0.515234,
2011-11-03, 01:15:04,VALID,996.089,VALID,0,VALID,93.0203,VALID,0,VALID,23.428,VALID,119,VALID,0.373047,
2011-11-03, 01:16:04,VALID,996.072,VALID,0,VALID,92.9974,VALID,0,VALID,23.428,VALID,119,VALID,0.0359375,
2011-11-03, 01:17:04,VALID,996.066,VALID,0,VALID,92.8906,VALID,0,VALID,23.4475,VALID,119,VALID,0.0117188,
2011-11-03, 01:18:04,VALID,996.045,VALID,0,VALID,92.822,VALID,0,VALID,23.4671,VALID,119,VALID,0,
2011-11-03, 01:19:04,VALID,996.035,VALID,0,VALID,92.7457,VALID,0,VALID,23.4671,VALID,119,VALID,0.435937,
2011-11-03, 01:20:04,VALID,996.056,VALID,0,VALID,92.6617,VALID,0,VALID,23.4866,VALID,119,VALID,0.264062,
2011-11-03, 01:21:04,VALID,996.038,VALID,0,VALID,92.5397,VALID,0,VALID,23.4671,VALID,119,VALID,0.222266,
2011-11-03, 01:22:04,VALID,996.03,VALID,0,VALID,92.4405,VALID,0,VALID,23.4671,VALID,119,VALID,0.156641,
2011-11-03, 01:23:04,VALID,996.033,VALID,0,VALID,92.3566,VALID,0,VALID,23.4884,VALID,119,VALID,0,
2011-11-03, 01:24:04,VALID,996.032,VALID,0,VALID,92.2955,VALID,0,VALID,23.4475,VALID,119,VALID,0,
2011-11-03, 01:25:04,VALID,996.003,VALID,0,VALID,92.2345,VALID,0,VALID,23.4085,VALID,119,VALID,0,
2011-11-03, 01:26:04,VALID,995.984,VALID,0,VALID,92.1277,VALID,0,VALID,23.3695,VALID,119,VALID,0,
2011-11-03, 01:27:04,VALID,995.952,VALID,0,VALID,92.2497,VALID,0,VALID,23.3713,VALID,119,VALID,0,
2011-11-03, 01:28:04,VALID,995.944,VALID,0,VALID,92.3489,VALID,0,VALID,23.3305,VALID,119,VALID,0,
2011-11-03, 01:29:04,VALID,995.913,VALID,0,VALID,92.41,VALID,0,VALID,23.3305,VALID,119,VALID,0,
2011-11-03, 01:30:04,VALID,995.881,VALID,0,VALID,92.471,VALID,0,VALID,23.311,VALID,119,VALID,0,
2011-11-03, 01:31:04,VALID,995.916,VALID,0,VALID,92.6541,VALID,0,VALID,23.35,VALID,114,VALID,0.751562,
2011-11-03, 01:32:04,VALID,995.906,VALID,0,VALID,92.7075,VALID,0,VALID,23.3695,VALID,114,VALID,0.712891,
2011-11-03, 01:33:04,VALID,995.913,VALID,0,VALID,92.738,VALID,0,VALID,23.389,VALID,114,VALID,0.660937,
2011-11-03, 01:34:04,VALID,995.943,VALID,0,VALID,92.7228,VALID,0,VALID,23.4085,VALID,116,VALID,0.698828,
2011-11-03, 01:35:04,VALID,995.949,VALID,0,VALID,92.677,VALID,0,VALID,23.428,VALID,117,VALID,0.559766,
2011-11-03, 01:36:04,VALID,995.976,VALID,0,VALID,92.6999,VALID,0,VALID,23.4475,VALID,125,VALID,0.764453,
2011-11-03, 01:37:04,VALID,995.999,VALID,0,VALID,92.677,VALID,0,VALID,23.4671,VALID,129,VALID,0.642187,
2011-11-03, 01:38:04,VALID,995.98,VALID,0,VALID,92.6388,VALID,0,VALID,23.4671,VALID,129,VALID,0.489453,
2011-11-03, 01:39:04,VALID,995.991,VALID,0,VALID,92.5854,VALID,0,VALID,23.4866,VALID,142,VALID,0.480078,
2011-11-03, 01:40:04,VALID,996.011,VALID,0,VALID,92.4557,VALID,0,VALID,23.5061,VALID,142,VALID,0.473047,
2011-11-03, 01:41:04,VALID,995.97,VALID,0,VALID,92.3031,VALID,0,VALID,23.5256,VALID,142,VALID,0.498828,
2011-11-03, 01:42:04,VALID,995.947,VALID,0,VALID,92.0819,VALID,0,VALID,23.5256,VALID,142,VALID,0.710547,
2011-11-03, 01:43:04,VALID,995.931,VALID,0,VALID,91.9064,VALID,0,VALID,23.5646,VALID,142,VALID,0.876562,
2011-11-03, 01:44:04,VALID,995.926,VALID,0,VALID,91.7309,VALID,0,VALID,23.5841,VALID,142,VALID,0.669922,
2011-11-03, 01:45:04,VALID,995.921,VALID,0,VALID,91.5554,VALID,0,VALID,23.6232,VALID,142,VALID,0.650781,
2011-11-03, 01:46:04,VALID,995.882,VALID,0,VALID,91.3342,VALID,0,VALID,23.6427,VALID,142,VALID,0.478906,
2011-11-03, 01:47:04,VALID,995.881,VALID,0,VALID,91.1282,VALID,0,VALID,23.6835,VALID,148,VALID,0.430859,
2011-11-03, 01:48:04,VALID,995.856,VALID,0,VALID,90.9832,VALID,0,VALID,23.6622,VALID,148,VALID,0,
2011-11-03, 01:49:04,VALID,995.819,VALID,0,VALID,90.8383,VALID,0,VALID,23.6817,VALID,148,VALID,0,
2011-11-03, 01:50:04,VALID,995.808,VALID,0,VALID,90.7467,VALID,0,VALID,23.6817,VALID,148,VALID,0,
2011-11-03, 01:51:04,VALID,995.793,VALID,0,VALID,90.6094,VALID,0,VALID,23.6622,VALID,148,VALID,0,
2011-11-03, 01:52:04,VALID,995.792,VALID,0,VALID,90.5178,VALID,0,VALID,23.6427,VALID,131,VALID,0,
2011-11-03, 01:53:04,VALID,995.75,VALID,0,VALID,90.5941,VALID,0,VALID,23.5841,VALID,28,VALID,0.815625,
2011-11-03, 01:54:04,VALID,995.74,VALID,0,VALID,90.7543,VALID,0,VALID,23.5628,VALID,25,VALID,0.776953,
2011-11-03, 01:55:04,VALID,995.744,VALID,0,VALID,90.7543,VALID,0,VALID,23.5646,VALID,25,VALID,0.619531,
2011-11-03, 01:56:04,VALID,995.685,VALID,0,VALID,90.8535,VALID,0,VALID,23.5469,VALID,25,VALID,0.00195313,
2011-11-03, 01:57:04,VALID,995.666,VALID,0,VALID,91.0214,VALID,0,VALID,23.4866,VALID,25,VALID,0,
2011-11-03, 01:58:04,VALID,995.676,VALID,0,VALID,91.1053,VALID,0,VALID,23.4458,VALID,25,VALID,0,
2011-11-03, 01:59:04,VALID,995.647,VALID,0,VALID,91.174,VALID,0,VALID,23.4475,VALID,25,VALID,0,
2011-11-03, 02:00:04,VALID,995.632,VALID,0,VALID,91.2884,VALID,0,VALID,23.4475,VALID,25,VALID,0,
2011-11-03, 02:01:05,VALID,995.646,VALID,0,VALID,91.3266,VALID,0,VALID,23.428,VALID,25,VALID,0,
2011-11-03, 02:02:05,VALID,995.656,VALID,0,VALID,91.3723,VALID,0,VALID,23.4298,VALID,25,VALID,0,
2011-11-03, 02:03:05,VALID,995.662,VALID,0,VALID,91.4791,VALID,0,VALID,23.389,VALID,25,VALID,0,
2011-11-03, 02:04:05,VALID,995.665,VALID,0,VALID,91.5249,VALID,0,VALID,23.389,VALID,25,VALID,0,
2011-11-03, 02:05:05,VALID,995.686,VALID,0,VALID,91.5249,VALID,0,VALID,23.389,VALID,25,VALID,0,
2011-11-03, 02:06:05,VALID,995.687,VALID,0,VALID,91.502,VALID,0,VALID,23.3695,VALID,25,VALID,0,
2011-11-03, 02:07:05,VALID,995.7,VALID,0,VALID,91.4486,VALID,0,VALID,23.3695,VALID,25,VALID,0,
2011-11-03, 02:08:05,VALID,995.718,VALID,0,VALID,91.4563,VALID,0,VALID,23.3695,VALID,25,VALID,0,
2011-11-03, 02:09:05,VALID,995.712,VALID,0,VALID,91.4563,VALID,0,VALID,23.389,VALID,39,VALID,0.424609,
2011-11-03, 02:10:05,VALID,995.678,VALID,0,VALID,91.3189,VALID,0,VALID,23.428,VALID,39,VALID,0.247266,
2011-11-03, 02:11:05,VALID,995.678,VALID,0,VALID,91.2426,VALID,0,VALID,23.4671,VALID,39,VALID,0.471484,
2011-11-03, 02:12:05,VALID,995.68,VALID,0,VALID,91.1663,VALID,0,VALID,23.4866,VALID,39,VALID,0.363281,
2011-11-03, 02:13:05,VALID,995.674,VALID,0,VALID,90.968,VALID,0,VALID,23.5256,VALID,127,VALID,0.71875,
2011-11-03, 02:14:05,VALID,995.672,VALID,0,VALID,90.6628,VALID,0,VALID,23.5841,VALID,137,VALID,0.813281,
2011-11-03, 02:15:05,VALID,995.64,VALID,0,VALID,90.1745,VALID,0,VALID,23.6036,VALID,137,VALID,1.23711,
2011-11-03, 02:16:05,VALID,995.637,VALID,0,VALID,89.7625,VALID,0,VALID,23.6427,VALID,137,VALID,1.0793,
2011-11-03, 02:17:05,VALID,995.626,VALID,0,VALID,89.4344,VALID,0,VALID,23.6817,VALID,137,VALID,1.18438,
2011-11-03, 02:18:05,VALID,995.598,VALID,0,VALID,89.1903,VALID,0,VALID,23.6622,VALID,137,VALID,1.02188,
2011-11-03, 02:19:05,VALID,995.569,VALID,0,VALID,89.2437,VALID,0,VALID,23.6427,VALID,137,VALID,1.03281,
2011-11-03, 02:20:05,VALID,995.57,VALID,0,VALID,89.3734,VALID,0,VALID,23.664,VALID,137,VALID,1.03477,
2011-11-03, 02:21:05,VALID,995.555,VALID,0,VALID,89.3657,VALID,0,VALID,23.6622,VALID,137,VALID,0.924609,
2011-11-03, 02:22:05,VALID,995.551,VALID,0,VALID,89.5489,VALID,0,VALID,23.6817,VALID,161,VALID,1.12812,
2011-11-03, 02:23:05,VALID,995.538,VALID,0,VALID,89.648,VALID,0,VALID,23.6817,VALID,164,VALID,1.16094,
2011-11-03, 02:24:05,VALID,995.516,VALID,0,VALID,89.7396,VALID,0,VALID,23.6817,VALID,164,VALID,1.19766,
2011-11-03, 02:25:05,VALID,995.526,VALID,0,VALID,89.8998,VALID,0,VALID,23.6817,VALID,164,VALID,1.00664,
2011-11-03, 02:26:05,VALID,995.513,VALID,0,VALID,89.854,VALID,0,VALID,23.7012,VALID,164,VALID,0.944922,
2011-11-03, 02:27:05,VALID,995.526,VALID,0,VALID,89.8311,VALID,0,VALID,23.7012,VALID,164,VALID,0.858984,
2011-11-03, 02:28:05,VALID,995.508,VALID,0,VALID,89.8617,VALID,0,VALID,23.7012,VALID,164,VALID,0.882813,
2011-11-03, 02:29:05,VALID,995.527,VALID,0,VALID,89.7014,VALID,0,VALID,23.6622,VALID,158,VALID,0.838281,
2011-11-03, 02:30:05,VALID,995.524,VALID,0,VALID,89.6251,VALID,0,VALID,23.6427,VALID,138,VALID,0.991016,
2011-11-03, 02:31:05,VALID,995.546,VALID,0,VALID,89.526,VALID,0,VALID,23.6019,VALID,133,VALID,0.982031,
2011-11-03, 02:32:05,VALID,995.543,VALID,0,VALID,89.4268,VALID,0,VALID,23.6232,VALID,134,VALID,0.802344,
2011-11-03, 02:33:05,VALID,995.523,VALID,0,VALID,89.4649,VALID,0,VALID,23.5841,VALID,132,VALID,0.886719,
2011-11-03, 02:34:05,VALID,995.522,VALID,0,VALID,89.4573,VALID,0,VALID,23.5451,VALID,130,VALID,0.722266,
2011-11-03, 02:35:05,VALID,995.513,VALID,0,VALID,89.5946,VALID,0,VALID,23.5061,VALID,131,VALID,0.897266,
2011-11-03, 02:36:05,VALID,995.53,VALID,0,VALID,89.7625,VALID,0,VALID,23.4475,VALID,133,VALID,0.665625,
2011-11-03, 02:37:05,VALID,995.506,VALID,0,VALID,89.9074,VALID,0,VALID,23.428,VALID,133,VALID,0.612109,
2011-11-03, 02:38:05,VALID,995.473,VALID,0,VALID,90.0448,VALID,0,VALID,23.389,VALID,133,VALID,0.520703,
2011-11-03, 02:39:05,VALID,995.465,VALID,0,VALID,90.1974,VALID,0,VALID,23.3482,VALID,133,VALID,0.422656,
2011-11-03, 02:40:05,VALID,995.485,VALID,0,VALID,90.2889,VALID,0,VALID,23.3287,VALID,133,VALID,0.193359,
2011-11-03, 02:41:05,VALID,995.451,VALID,0,VALID,90.3576,VALID,0,VALID,23.35,VALID,177,VALID,0.803516,
2011-11-03, 02:42:05,VALID,995.452,VALID,0,VALID,90.4491,VALID,0,VALID,23.35,VALID,185,VALID,0.342969,
2011-11-03, 02:43:05,VALID,995.477,VALID,0,VALID,90.4797,VALID,0,VALID,23.3305,VALID,185,VALID,0.235156,
2011-11-03, 02:44:05,VALID,995.459,VALID,0,VALID,90.4797,VALID,0,VALID,23.3305,VALID,185,VALID,0,
2011-11-03, 02:45:05,VALID,995.479,VALID,0,VALID,90.5102,VALID,0,VALID,23.3305,VALID,185,VALID,0,
2011-11-03, 02:46:05,VALID,995.469,VALID,0,VALID,90.5178,VALID,0,VALID,23.35,VALID,185,VALID,0,
2011-11-03, 02:47:05,VALID,995.486,VALID,0,VALID,90.5102,VALID,0,VALID,23.3305,VALID,185,VALID,0,
2011-11-03, 02:48:05,VALID,995.465,VALID,0,VALID,90.472,VALID,0,VALID,23.311,VALID,185,VALID,0,
2011-11-03, 02:49:05,VALID,995.476,VALID,0,VALID,90.472,VALID,0,VALID,23.2915,VALID,185,VALID,0,
2011-11-03, 02:50:05,VALID,995.484,VALID,0,VALID,90.5407,VALID,0,VALID,23.2524,VALID,185,VALID,0,
2011-11-03, 02:51:05,VALID,995.453,VALID,0,VALID,90.6551,VALID,0,VALID,23.2329,VALID,185,VALID,0,
2011-11-03, 02:52:05,VALID,995.436,VALID,0,VALID,90.8001,VALID,0,VALID,23.2134,VALID,185,VALID,0,
2011-11-03, 02:53:05,VALID,995.469,VALID,0,VALID,90.9527,VALID,0,VALID,23.1744,VALID,185,VALID,0.780859,
2011-11-03, 02:54:05,VALID,995.441,VALID,0,VALID,91.174,VALID,0,VALID,23.2134,VALID,177,VALID,0.602734,
2011-11-03, 02:55:05,VALID,995.435,VALID,0,VALID,91.0595,VALID,0,VALID,23.2524,VALID,177,VALID,0.524609,
2011-11-03, 02:56:05,VALID,995.452,VALID,0,VALID,90.9451,VALID,0,VALID,23.2915,VALID,171,VALID,0.712891,
2011-11-03, 02:57:05,VALID,995.449,VALID,0,VALID,90.7772,VALID,0,VALID,23.35,VALID,169,VALID,0.455469,
2011-11-03, 02:58:05,VALID,995.43,VALID,0,VALID,90.5102,VALID,0,VALID,23.3695,VALID,169,VALID,0.125391,
2011-11-03, 02:59:05,VALID,995.449,VALID,0,VALID,90.1897,VALID,0,VALID,23.3695,VALID,169,VALID,0,
2011-11-03, 03:00:05,VALID,995.479,VALID,0,VALID,90.0677,VALID,0,VALID,23.3305,VALID,169,VALID,0,
2011-11-03, 03:01:05,VALID,995.466,VALID,0,VALID,89.9914,VALID,0,VALID,23.2915,VALID,169,VALID,0,
2011-11-03, 03:02:05,VALID,995.466,VALID,0,VALID,90.2355,VALID,0,VALID,23.2719,VALID,169,VALID,0,
2011-11-03, 03:03:05,VALID,995.505,VALID,0,VALID,90.4568,VALID,0,VALID,23.2524,VALID,169,VALID,0,
2011-11-03, 03:04:05,VALID,995.51,VALID,0,VALID,90.6857,VALID,0,VALID,23.2329,VALID,109,VALID,0.597266,
2011-11-03, 03:05:05,VALID,995.491,VALID,0,VALID,90.7467,VALID,0,VALID,23.2329,VALID,95,VALID,0.736719,
2011-11-03, 03:06:05,VALID,995.511,VALID,0,VALID,90.8077,VALID,0,VALID,23.2134,VALID,93,VALID,0.688672,
2011-11-03, 03:07:05,VALID,995.527,VALID,0,VALID,90.884,VALID,0,VALID,23.2329,VALID,93,VALID,0.376953,
2011-11-03, 03:08:05,VALID,995.505,VALID,0,VALID,90.8459,VALID,0,VALID,23.2329,VALID,61,VALID,0.748047,
2011-11-03, 03:09:05,VALID,995.521,VALID,0,VALID,90.6246,VALID,0,VALID,23.2134,VALID,40,VALID,0.510547,
2011-11-03, 03:10:05,VALID,995.499,VALID,0,VALID,90.4339,VALID,0,VALID,23.1549,VALID,15,VALID,0.736328,
2011-11-03, 03:11:05,VALID,995.511,VALID,0,VALID,90.7085,VALID,0,VALID,23.1159,VALID,5,VALID,0.733203,
2011-11-03, 03:12:05,VALID,995.525,VALID,0,VALID,91.1129,VALID,0,VALID,23.0981,VALID,5,VALID,0.693359,
2011-11-03, 03:13:05,VALID,995.524,VALID,0,VALID,91.3189,VALID,0,VALID,23.0378,VALID,5,VALID,0.414844,
2011-11-03, 03:14:05,VALID,995.559,VALID,0,VALID,91.5936,VALID,0,VALID,22.9988,VALID,5,VALID,0.198828,
2011-11-03, 03:15:05,VALID,995.569,VALID,0,VALID,91.8759,VALID,0,VALID,22.9793,VALID,5,VALID,0,
2011-11-03, 03:16:05,VALID,995.604,VALID,0,VALID,92.0666,VALID,0,VALID,22.9598,VALID,5,VALID,0,
2011-11-03, 03:17:05,VALID,995.637,VALID,0,VALID,92.2421,VALID,0,VALID,22.9598,VALID,5,VALID,0,
2011-11-03, 03:18:05,VALID,995.611,VALID,0,VALID,92.4023,VALID,0,VALID,22.9598,VALID,5,VALID,0,
2011-11-03, 03:19:05,VALID,995.644,VALID,0,VALID,92.3794,VALID,0,VALID,22.9013,VALID,5,VALID,0,
2011-11-03, 03:20:05,VALID,995.665,VALID,0,VALID,92.326,VALID,0,VALID,22.864,VALID,5,VALID,0,
2011-11-03, 03:21:05,VALID,995.66,VALID,0,VALID,92.4023,VALID,0,VALID,22.8445,VALID,5,VALID,0,
2011-11-03, 03:22:05,VALID,995.674,VALID,0,VALID,92.5397,VALID,0,VALID,22.8232,VALID,5,VALID,0,
2011-11-03, 03:23:05,VALID,995.646,VALID,0,VALID,92.6846,VALID,0,VALID,22.8427,VALID,5,VALID,0,
2011-11-03, 03:24:05,VALID,995.701,VALID,0,VALID,92.7914,VALID,0,VALID,22.8623,VALID,5,VALID,0,
2011-11-03, 03:25:05,VALID,995.73,VALID,0,VALID,92.9135,VALID,0,VALID,22.8818,VALID,5,VALID,0,
2011-11-03, 03:26:05,VALID,995.72,VALID,0,VALID,93.0051,VALID,0,VALID,22.9208,VALID,5,VALID,0,
2011-11-03, 03:27:05,VALID,995.758,VALID,0,VALID,93.0356,VALID,0,VALID,22.9208,VALID,5,VALID,0,
2011-11-03, 03:28:05,VALID,995.768,VALID,0,VALID,93.0508,VALID,0,VALID,22.9208,VALID,5,VALID,0,
2011-11-03, 03:29:05,VALID,995.784,VALID,0,VALID,93.0203,VALID,0,VALID,22.9013,VALID,5,VALID,0,
2011-11-03, 03:30:05,VALID,995.775,VALID,0,VALID,92.9822,VALID,0,VALID,22.8818,VALID,5,VALID,0,
2011-11-03, 03:31:05,VALID,995.764,VALID,0,VALID,92.9974,VALID,0,VALID,22.8818,VALID,5,VALID,0,
2011-11-03, 03:32:05,VALID,995.717,VALID,0,VALID,92.9974,VALID,0,VALID,22.8818,VALID,5,VALID,0,
2011-11-03, 03:33:05,VALID,995.714,VALID,0,VALID,92.9745,VALID,0,VALID,22.8818,VALID,5,VALID,0,
2011-11-03, 03:34:05,VALID,995.697,VALID,0,VALID,92.9745,VALID,0,VALID,22.8427,VALID,5,VALID,0,
2011-11-03, 03:35:05,VALID,995.662,VALID,0,VALID,92.9059,VALID,0,VALID,22.8232,VALID,5,VALID,0,
2011-11-03, 03:36:05,VALID,995.667,VALID,0,VALID,92.8525,VALID,0,VALID,22.7842,VALID,5,VALID,0,
2011-11-03, 03:37:05,VALID,995.675,VALID,0,VALID,92.8983,VALID,0,VALID,22.8427,VALID,5,VALID,0,
2011-11-03, 03:38:05,VALID,995.697,VALID,0,VALID,92.8677,VALID,0,VALID,22.8623,VALID,5,VALID,0,
2011-11-03, 03:39:05,VALID,995.685,VALID,0,VALID,92.7075,VALID,0,VALID,22.8623,VALID,5,VALID,0,
2011-11-03, 03:40:05,VALID,995.717,VALID,0,VALID,92.5473,VALID,0,VALID,22.8232,VALID,5,VALID,0,
2011-11-03, 03:41:05,VALID,995.703,VALID,0,VALID,92.4252,VALID,0,VALID,22.8232,VALID,5,VALID,0,
2011-11-03, 03:42:05,VALID,995.734,VALID,0,VALID,92.4023,VALID,0,VALID,22.8232,VALID,5,VALID,0,
2011-11-03, 03:43:05,VALID,995.709,VALID,0,VALID,92.3718,VALID,0,VALID,22.8232,VALID,5,VALID,0,
2011-11-03, 03:44:05,VALID,995.736,VALID,0,VALID,92.3184,VALID,0,VALID,22.8818,VALID,60,VALID,0.538672,
2011-11-03, 03:45:05,VALID,995.712,VALID,0,VALID,92.1277,VALID,0,VALID,22.9208,VALID,60,VALID,0.652734,
2011-11-03, 03:46:05,VALID,995.698,VALID,0,VALID,91.8225,VALID,0,VALID,22.9615,VALID,60,VALID,0.879297,
2011-11-03, 03:47:05,VALID,995.721,VALID,0,VALID,91.6699,VALID,0,VALID,22.9988,VALID,60,VALID,0.776563,
2011-11-03, 03:48:05,VALID,995.685,VALID,0,VALID,91.5173,VALID,0,VALID,23.0396,VALID,60,VALID,0.99375,
2011-11-03, 03:49:05,VALID,995.687,VALID,0,VALID,91.1892,VALID,0,VALID,23.0378,VALID,53,VALID,1.22344,
2011-11-03, 03:50:05,VALID,995.708,VALID,0,VALID,90.8459,VALID,0,VALID,22.9988,VALID,50,VALID,1.35352,